Location: Daerah Kuala Lumpur
(3.1167°N, 101.6833°E)
Time: 09:03:59
(UTC+00:00)

Hubble Space Telescope - Visible Passes

Search period start: 09 February 2026 00:00
Search period end: 19 February 2026 00:00
Orbit: 478 x 480 km, 28.5° (Epoch: 8 February)

Date Brightness Start Highest point End Pass type
(mag) Time Alt. Az. Time Alt. Az. Time Alt. Az.
9 Feb 3.3 12:33:14 10° WSW 12:35:21 14° SSW 12:37:30 10° S visible
9 Feb 2.3 22:38:01 10° SSW 22:41:24 31° SSE 22:44:47 10° E visible
10 Feb 3.4 12:03:05 10° WSW 12:05:12 14° SSW 12:07:19 10° S visible
10 Feb 2.2 22:08:49 16° SSW 22:11:14 31° SSE 22:14:37 10° E visible
11 Feb 2.2 21:41:20 31° SE 21:41:20 31° SE 21:44:27 10° E visible
12 Feb 3.7 21:13:45 13° E 21:13:45 13° E 21:14:15 10° E visible
12 Feb 1.4 22:47:55 14° W 22:50:36 32° NNW 22:54:00 10° NE visible
13 Feb 1.4 22:20:13 31° NW 22:20:24 31° NNW 22:23:47 10° NE visible
14 Feb 2.7 21:52:23 17° NNE 21:52:23 17° NNE 21:53:33 10° NE visible
